This is the latest recevied weather packets stored in our database for station/object IK1AMC-3. If no packets are shown the sender has not sent any weather packets the latest 10 day(s).
| Time | Temp. | Humidity | Pressure | Rain* | Wind** | Luminosity | Snow |
|---|---|---|---|---|---|---|---|
| 1778045839 | 15° C | 86% | 1007.2 hPa | - | - | - | - |
| 1778044638 | 15° C | 84% | 1007.4 hPa | - | - | - | - |
| 1778043436 | 15° C | 86% | 1007.6 hPa | - | - | - | - |
| 1778042235 | 15° C | 86% | 1007.1 hPa | - | - | - | - |
| 1778041033 | 15° C | 85% | 1007.4 hPa | - | - | - | - |
| 1778039832 | 15° C | 80% | 1007.9 hPa | - | - | - | - |
| 1778038631 | 15.56° C | 81% | 1008.2 hPa | - | - | - | - |
| 1778037430 | 15.56° C | 81% | 1008.2 hPa | - | - | - | - |
| 1778036229 | 15.56° C | 79% | 1008 hPa | - | - | - | - |
| 1778035027 | 15.56° C | 80% | 1008 hPa | - | - | - | - |
| 1778033826 | 15.56° C | 79% | 1008.2 hPa | - | - | - | - |
| 1778032624 | 15.56° C | 81% | 1008.6 hPa | - | - | - | - |
| 1778031423 | 15.56° C | 82% | 1008.9 hPa | - | - | - | - |
| 1778030222 | 15.56° C | 80% | 1009.1 hPa | - | - | - | - |
| 1778029021 | 15.56° C | 82% | 1008.9 hPa | - | - | - | - |
| 1778027819 | 15.56° C | 81% | 1009.7 hPa | - | - | - | - |
| 1778026618 | 15.56° C | 83% | 1010.1 hPa | - | - | - | - |
| 1778025417 | 15.56° C | 81% | 1009.9 hPa | - | - | - | - |
| 1778024216 | 15.56° C | 79% | 1010.1 hPa | - | - | - | - |
| 1778023014 | 15.56° C | 78% | 1010.3 hPa | - | - | - | - |
| 1778021813 | 15.56° C | 78% | 1010.3 hPa | - | - | - | - |
| 1778020612 | 15.56° C | 77% | 1010.9 hPa | - | - | - | - |
| 1778019410 | 16.11° C | 76% | 1011.2 hPa | - | - | - | - |
| 1778018208 | 15.56° C | 79% | 1011.4 hPa | - | - | - | - |
| 1778017007 | 15.56° C | 79% | 1011.4 hPa | - | - | - | - |
* Rain since midnight (hover to see other rain measurements)
** Current wind speed in m/s (hover to see current wind gust speed)